When you browse on this site, cookies collect data to enhance your experience and personalize the content and advertising you see.
Visit our Privacy Policy to learn more. By continuing to use the site, you agree to this use of cookies and data.
  • In Latvia
  • List of Countries
  • For 7 days
  • Water Temperature
  • Satellite Maps
  • Weather Map
  • Weather Widgets
  • user-avatar
    Login

    Hourly Weather Sydney

    Today, 27 May, Monday

    Time Temperature Precipitation Wind Pressure Humidity
    00:00 +13°C° 0 mm 3 mps 759 mmHg 60%
    01:00 +12°C° 0 mm 3 mps 759 mmHg 62%
    02:00 +12°C° 0 mm 3 mps 758 mmHg 61%
    03:00 +11°C° 0 mm 3 mps 758 mmHg 61%
    04:00 +12°C° 0 mm 3 mps 757 mmHg 60%
    05:00 +11°C° 0 mm 3 mps 757 mmHg 59%
    06:00 +11°C° 0 mm 3 mps 757 mmHg 58%
    07:00 +11°C° 0 mm 4 mps 757 mmHg 56%
    08:00 +13°C° 0 mm 5 mps 756 mmHg 51%
    09:00 +15°C° 0 mm 6 mps 756 mmHg 45%
    10:00 +17°C° 0 mm 6 mps 755 mmHg 39%
    11:00 +18°C° 0 mm 8 mps 755 mmHg 38%
    12:00 +19°C° 0 mm 9 mps 755 mmHg 37%
    13:00 +19°C° 0 mm 10 mps 754 mmHg 36%
    14:00 +18°C° 0.2 mm 10 mps 755 mmHg 37%
    15:00 +16°C° 0.2 mm 10 mps 755 mmHg 38%
    16:00 +13°C° 0.2 mm 10 mps 756 mmHg 39%
    17:00 +13°C° 0 mm 9 mps 756 mmHg 39%
    18:00 +12°C° 0 mm 9 mps 757 mmHg 40%
    19:00 +11°C° 0 mm 8 mps 758 mmHg 40%
    20:00 +11°C° 0 mm 8 mps 758 mmHg 41%
    21:00 +10°C° 0 mm 7 mps 759 mmHg 42%
    22:00 +10°C° 0 mm 7 mps 759 mmHg 43%
    23:00 +10°C° 0 mm 7 mps 759 mmHg 45%

    Tomorrow, 28 May, Tuesday

    Time Temperature Precipitation Wind Pressure Humidity
    00:00 +10°C° 0 mm 7 mps 759 mmHg 47%
    01:00 +9°C° 0 mm 6 mps 759 mmHg 48%
    02:00 +9°C° 0 mm 6 mps 759 mmHg 50%
    03:00 +9°C° 0 mm 6 mps 759 mmHg 52%
    04:00 +8°C° 0 mm 6 mps 759 mmHg 53%
    05:00 +8°C° 0 mm 5 mps 759 mmHg 54%
    06:00 +8°C° 0 mm 5 mps 760 mmHg 56%
    07:00 +7°C° 0 mm 5 mps 760 mmHg 57%
    08:00 +9°C° 0 mm 5 mps 760 mmHg 53%
    09:00 +10°C° 0 mm 5 mps 760 mmHg 48%
    10:00 +13°C° 0 mm 5 mps 760 mmHg 43%
    11:00 +14°C° 0 mm 4 mps 759 mmHg 39%
    12:00 +17°C° 0 mm 4 mps 758 mmHg 35%
    13:00 +18°C° 0 mm 4 mps 758 mmHg 30%
    14:00 +18°C° 0 mm 4 mps 757 mmHg 32%
    15:00 +18°C° 0 mm 4 mps 757 mmHg 33%
    16:00 +19°C° 0 mm 4 mps 757 mmHg 35%
    17:00 +17°C° 0 mm 4 mps 757 mmHg 39%
    18:00 +15°C° 0 mm 5 mps 758 mmHg 43%
    19:00 +14°C° 0 mm 5 mps 758 mmHg 47%
    20:00 +13°C° 0 mm 6 mps 758 mmHg 49%
    21:00 +13°C° 0 mm 6 mps 758 mmHg 52%
    22:00 +11°C° 0 mm 6 mps 758 mmHg 54%
    23:00 +11°C° 0 mm 6 mps 757 mmHg 55%

    Day after tomorrow, 29 May, Wednesday

    Time Temperature Precipitation Wind Pressure Humidity
    00:00 +11°C° 0 mm 7 mps 757 mmHg 55%
    01:00 +11°C° 0 mm 7 mps 756 mmHg 55%
    02:00 +11°C° 0 mm 7 mps 756 mmHg 55%
    03:00 +12°C° 0 mm 7 mps 755 mmHg 55%
    04:00 +12°C° 0 mm 7 mps 755 mmHg 55%
    05:00 +12°C° 0 mm 7 mps 755 mmHg 55%
    06:00 +12°C° 0 mm 7 mps 755 mmHg 55%
    07:00 +12°C° 0 mm 7 mps 755 mmHg 56%
    08:00 +14°C° 0 mm 7 mps 755 mmHg 51%
    09:00 +16°C° 0 mm 8 mps 755 mmHg 47%
    10:00 +17°C° 0 mm 8 mps 755 mmHg 43%
    11:00 +18°C° 0 mm 8 mps 754 mmHg 41%
    12:00 +18°C° 0 mm 9 mps 754 mmHg 40%
    13:00 +18°C° 0 mm 9 mps 753 mmHg 38%
    14:00 +18°C° 0 mm 9 mps 754 mmHg 38%
    15:00 +17°C° 0 mm 8 mps 754 mmHg 38%
    16:00 +17°C° 0 mm 8 mps 754 mmHg 38%
    17:00 +16°C° 0 mm 8 mps 755 mmHg 41%
    18:00 +15°C° 0 mm 7 mps 756 mmHg 44%
    19:00 +14°C° 0 mm 7 mps 757 mmHg 47%
    20:00 +12°C° 0 mm 7 mps 757 mmHg 47%
    21:00 +11°C° 0 mm 7 mps 758 mmHg 48%
    22:00 +10°C° 0 mm 7 mps 759 mmHg 49%
    23:00 +10°C° 0 mm 7 mps 759 mmHg 49%

    30 May, Thursday

    Time Temperature Precipitation Wind Pressure Humidity
    00:00 +9°C° 0 mm 7 mps 759 mmHg 49%
    01:00 +8°C° 0 mm 6 mps 759 mmHg 49%
    02:00 +8°C° 0 mm 6 mps 760 mmHg 49%
    03:00 +8°C° 0 mm 6 mps 760 mmHg 48%
    04:00 +7°C° 0 mm 6 mps 761 mmHg 48%
    05:00 +7°C° 0 mm 6 mps 761 mmHg 49%
    06:00 +7°C° 0 mm 6 mps 762 mmHg 50%
    07:00 +7°C° 0 mm 6 mps 763 mmHg 51%
    08:00 +8°C° 0 mm 6 mps 763 mmHg 47%
    09:00 +10°C° 0 mm 6 mps 763 mmHg 43%
    10:00 +11°C° 0 mm 6 mps 764 mmHg 39%
    11:00 +13°C° 0 mm 6 mps 764 mmHg 36%
    12:00 +14°C° 0 mm 5 mps 763 mmHg 32%
    13:00 +15°C° 0 mm 5 mps 763 mmHg 28%
    14:00 +15°C° 0 mm 5 mps 763 mmHg 28%
    15:00 +15°C° 0 mm 4 mps 764 mmHg 28%
    16:00 +15°C° 0 mm 4 mps 764 mmHg 28%
    17:00 +14°C° 0 mm 4 mps 765 mmHg 31%
    18:00 +13°C° 0 mm 4 mps 766 mmHg 35%
    19:00 +12°C° 0 mm 4 mps 766 mmHg 38%
    20:00 +12°C° 0 mm 5 mps 767 mmHg 43%
    21:00 +10°C° 0 mm 5 mps 768 mmHg 48%
    22:00 +9°C° 0 mm 5 mps 768 mmHg 53%
    23:00 +9°C° 0 mm 5 mps 768 mmHg 55%

    31 May, Friday

    Time Temperature Precipitation Wind Pressure Humidity
    00:00 +8°C° 0 mm 5 mps 768 mmHg 57%
    01:00 +8°C° 0 mm 4 mps 768 mmHg 60%
    02:00 +8°C° 0 mm 4 mps 768 mmHg 61%
    03:00 +7°C° 0 mm 4 mps 768 mmHg 62%
    04:00 +7°C° 0 mm 4 mps 768 mmHg 62%
    05:00 +7°C° 0 mm 4 mps 769 mmHg 62%
    06:00 +6°C° 0 mm 4 mps 769 mmHg 62%
    07:00 +6°C° 0 mm 4 mps 769 mmHg 61%
    08:00 +8°C° 0 mm 4 mps 769 mmHg 55%
    09:00 +11°C° 0 mm 4 mps 769 mmHg 48%
    10:00 +13°C° 0 mm 4 mps 769 mmHg 41%
    11:00 +14°C° 0 mm 4 mps 769 mmHg 42%
    12:00 +17°C° 0 mm 4 mps 768 mmHg 42%
    13:00 +19°C° 0 mm 4 mps 768 mmHg 43%
    14:00 +18°C° 0 mm 4 mps 768 mmHg 46%
    15:00 +17°C° 0 mm 5 mps 768 mmHg 49%
    16:00 +17°C° 0 mm 5 mps 768 mmHg 53%
    17:00 +17°C° 0 mm 5 mps 768 mmHg 57%
    18:00 +16°C° 0 mm 6 mps 769 mmHg 62%
    19:00 +15°C° 0 mm 6 mps 769 mmHg 67%
    20:00 +15°C° 0 mm 6 mps 770 mmHg 67%
    21:00 +15°C° 0 mm 6 mps 770 mmHg 67%
    22:00 +14°C° 0 mm 6 mps 770 mmHg 67%
    23:00 +14°C° 0 mm 6 mps 770 mmHg 68%

    1 June, Saturday

    Time Temperature Precipitation Wind Pressure Humidity
    00:00 +14°C° 0 mm 6 mps 770 mmHg 69%
    01:00 +13°C° 0 mm 6 mps 770 mmHg 70%
    02:00 +13°C° 0.1 mm 6 mps 770 mmHg 71%
    03:00 +12°C° 0.1 mm 7 mps 770 mmHg 72%
    04:00 +11°C° 0.1 mm 7 mps 770 mmHg 73%
    05:00 +11°C° 0.1 mm 7 mps 770 mmHg 74%
    06:00 +11°C° 0.1 mm 7 mps 770 mmHg 76%
    07:00 +12°C° 0.1 mm 7 mps 771 mmHg 77%
    08:00 +14°C° 0.1 mm 7 mps 771 mmHg 73%
    09:00 +15°C° 0.1 mm 6 mps 771 mmHg 70%
    10:00 +16°C° 0.1 mm 6 mps 771 mmHg 66%
    11:00 +17°C° 0.1 mm 7 mps 770 mmHg 66%
    12:00 +17°C° 0.1 mm 7 mps 770 mmHg 65%
    13:00 +18°C° 0.1 mm 8 mps 769 mmHg 65%
    14:00 +17°C° 0.1 mm 8 mps 769 mmHg 67%
    15:00 +17°C° 0.1 mm 7 mps 769 mmHg 69%
    16:00 +17°C° 0.1 mm 7 mps 769 mmHg 71%
    17:00 +16°C° 0.3 mm 6 mps 769 mmHg 72%
    18:00 +16°C° 0.3 mm 5 mps 770 mmHg 74%
    19:00 +16°C° 0.3 mm 5 mps 770 mmHg 75%
    20:00 +17°C° 0.7 mm 4 mps 770 mmHg 77%
    21:00 +15°C° 0.7 mm 4 mps 770 mmHg 79%
    22:00 +16°C° 0.7 mm 3 mps 770 mmHg 81%
    23:00 +16°C° 0.4 mm 3 mps 770 mmHg 82%
    Show more